• In Belarus
  • List of Countries
  • For 7 days
  • Water Temperature
  • Weather Map
  • Weather Widgets
  • user-avatar
    Login

    Hourly Weather Argvani

    Today, 30 March, Monday

    Time Temperature Precipitation Wind Pressure Humidity
    00:00 +5°C° 0.3 mm 0 mps 622 mmHg 74%
    01:00 +5°C° 0.3 mm 0 mps 621 mmHg 77%
    02:00 +4°C° 0.3 mm 0 mps 621 mmHg 80%
    03:00 +4°C° 0.3 mm 0 mps 620 mmHg 83%
    04:00 +4°C° 0.8 mm 0 mps 620 mmHg 85%
    05:00 +4°C° 0.8 mm 0 mps 620 mmHg 88%
    06:00 +5°C° 0.8 mm 1 mps 620 mmHg 90%
    07:00 +4°C° 1.2 mm 1 mps 620 mmHg 91%
    08:00 +4°C° 1.2 mm 1 mps 620 mmHg 93%
    09:00 +4°C° 1.2 mm 1 mps 620 mmHg 94%
    10:00 +4°C° 0.8 mm 1 mps 620 mmHg 93%
    11:00 +4°C° 0.8 mm 1 mps 620 mmHg 93%
    12:00 +4°C° 0.8 mm 1 mps 620 mmHg 92%
    13:00 +4°C° 0.3 mm 1 mps 620 mmHg 91%
    14:00 +5°C° 0.3 mm 1 mps 620 mmHg 91%
    15:00 +5°C° 0.3 mm 1 mps 620 mmHg 90%
    16:00 +3°C° 0.6 mm 2 mps 621 mmHg 91%
    17:00 +3°C° 0.6 mm 2 mps 621 mmHg 92%
    18:00 +2°C° 0.6 mm 3 mps 621 mmHg 92%
    19:00 +2°C° 0.3 mm 3 mps 621 mmHg 92%
    20:00 +1°C° 0.3 mm 3 mps 621 mmHg 91%
    21:00 +1°C° 0.3 mm 3 mps 622 mmHg 91%
    22:00 +1°C° 0.3 mm 3 mps 622 mmHg 91%
    23:00 +1°C° 0.3 mm 3 mps 622 mmHg 91%

    Tomorrow, 31 March, Tuesday

    Time Temperature Precipitation Wind Pressure Humidity
    00:00 +1°C° 0.3 mm 3 mps 622 mmHg 92%
    01:00 +1°C° 0.5 mm 3 mps 622 mmHg 92%
    02:00 +1°C° 0.5 mm 3 mps 623 mmHg 93%
    03:00 +1°C° 0.5 mm 3 mps 623 mmHg 94%
    04:00 +1°C° 1.3 mm 3 mps 623 mmHg 94%
    05:00 0°C° 1.3 mm 3 mps 623 mmHg 94%
    06:00 0°C° 1.3 mm 3 mps 624 mmHg 94%
    07:00 0°C° 2 mm 3 mps 624 mmHg 94%
    08:00 +1°C° 2 mm 3 mps 624 mmHg 94%
    09:00 +1°C° 2 mm 3 mps 624 mmHg 94%
    10:00 0°C° 1.1 mm 4 mps 625 mmHg 91%
    11:00 0°C° 1.1 mm 4 mps 625 mmHg 89%
    12:00 +1°C° 1.1 mm 4 mps 625 mmHg 87%
    13:00 +1°C° 0.2 mm 4 mps 625 mmHg 83%
    14:00 +3°C° 0.2 mm 3 mps 625 mmHg 80%
    15:00 +4°C° 0.2 mm 3 mps 626 mmHg 77%
    16:00 +3°C° 0 mm 3 mps 626 mmHg 79%
    17:00 +4°C° 0 mm 2 mps 626 mmHg 80%
    18:00 +3°C° 0 mm 2 mps 626 mmHg 82%
    19:00 +3°C° 0.1 mm 2 mps 626 mmHg 81%
    20:00 +3°C° 0.1 mm 2 mps 626 mmHg 80%
    21:00 +3°C° 0.1 mm 2 mps 627 mmHg 79%
    22:00 +2°C° 0 mm 2 mps 626 mmHg 80%
    23:00 +3°C° 0 mm 1 mps 626 mmHg 80%

    Day after tomorrow, 1 April, Wednesday

    Time Temperature Precipitation Wind Pressure Humidity
    00:00 +3°C° 0 mm 1 mps 626 mmHg 81%
    01:00 +2°C° 0 mm 1 mps 626 mmHg 81%
    02:00 +2°C° 0 mm 1 mps 626 mmHg 81%
    03:00 +1°C° 0 mm 1 mps 626 mmHg 81%
    04:00 +1°C° 0 mm 1 mps 626 mmHg 81%
    05:00 +1°C° 0 mm 1 mps 626 mmHg 81%
    06:00 0°C° 0 mm 0 mps 626 mmHg 81%
    07:00 +2°C° 0 mm 1 mps 627 mmHg 77%
    08:00 +4°C° 0 mm 1 mps 627 mmHg 73%
    09:00 +6°C° 0 mm 1 mps 627 mmHg 70%
    10:00 +6°C° 0 mm 1 mps 628 mmHg 68%
    11:00 +6°C° 0 mm 2 mps 628 mmHg 67%
    12:00 +7°C° 0 mm 2 mps 628 mmHg 66%
    13:00 +7°C° 0.1 mm 2 mps 627 mmHg 69%
    14:00 +7°C° 0.1 mm 2 mps 627 mmHg 72%
    15:00 +7°C° 0.1 mm 2 mps 627 mmHg 75%
    16:00 +6°C° 0.2 mm 2 mps 626 mmHg 79%
    17:00 +5°C° 0.2 mm 2 mps 626 mmHg 83%
    18:00 +6°C° 0.2 mm 1 mps 626 mmHg 87%
    19:00 +5°C° 0.2 mm 1 mps 626 mmHg 88%
    20:00 +5°C° 0.2 mm 1 mps 626 mmHg 89%
    21:00 +4°C° 0.2 mm 0 mps 626 mmHg 90%
    22:00 +4°C° 0.3 mm 0 mps 626 mmHg 91%
    23:00 +3°C° 0.3 mm 0 mps 626 mmHg 91%

    2 April, Thursday

    Time Temperature Precipitation Wind Pressure Humidity
    00:00 +3°C° 0.3 mm 0 mps 625 mmHg 92%
    01:00 +3°C° 0.2 mm 0 mps 625 mmHg 92%
    02:00 +3°C° 0.2 mm 0 mps 625 mmHg 92%
    03:00 +3°C° 0.2 mm 0 mps 625 mmHg 92%
    04:00 +3°C° 0.2 mm 0 mps 625 mmHg 93%
    05:00 +3°C° 0.2 mm 0 mps 625 mmHg 93%
    06:00 +3°C° 0.2 mm 0 mps 625 mmHg 94%
    07:00 +3°C° 0.1 mm 0 mps 625 mmHg 92%
    08:00 +3°C° 0.1 mm 0 mps 626 mmHg 91%
    09:00 +3°C° 0.1 mm 0 mps 626 mmHg 90%
    10:00 +5°C° 0.1 mm 1 mps 626 mmHg 88%
    11:00 +6°C° 0.1 mm 1 mps 626 mmHg 86%
    12:00 +5°C° 0.1 mm 2 mps 626 mmHg 84%
    13:00 +5°C° 0.3 mm 2 mps 626 mmHg 86%
    14:00 +6°C° 0.3 mm 1 mps 626 mmHg 87%
    15:00 +6°C° 0.3 mm 1 mps 626 mmHg 89%
    16:00 +5°C° 0.4 mm 1 mps 626 mmHg 90%
    17:00 +5°C° 0.4 mm 1 mps 626 mmHg 91%
    18:00 +5°C° 0.4 mm 1 mps 626 mmHg 93%
    19:00 +5°C° 0.2 mm 1 mps 626 mmHg 93%
    20:00 +4°C° 0.2 mm 0 mps 627 mmHg 94%
    21:00 +4°C° 0.2 mm 0 mps 627 mmHg 94%
    22:00 +3°C° 0 mm 0 mps 627 mmHg 94%
    23:00 +3°C° 0 mm 0 mps 627 mmHg 94%

    3 April, Friday

    Time Temperature Precipitation Wind Pressure Humidity
    00:00 +3°C° 0 mm 0 mps 626 mmHg 94%
    01:00 +2°C° 0 mm 0 mps 626 mmHg 93%
    02:00 +2°C° 0 mm 0 mps 626 mmHg 93%
    03:00 +2°C° 0 mm 0 mps 625 mmHg 92%
    04:00 +2°C° 0 mm 0 mps 625 mmHg 92%
    05:00 +2°C° 0 mm 0 mps 625 mmHg 91%
    06:00 +1°C° 0 mm 0 mps 625 mmHg 91%
    07:00 +4°C° 0 mm 1 mps 626 mmHg 86%
    08:00 +5°C° 0 mm 1 mps 627 mmHg 81%
    09:00 +6°C° 0 mm 1 mps 627 mmHg 77%
    10:00 +7°C° 0 mm 1 mps 627 mmHg 77%
    11:00 +6°C° 0 mm 2 mps 627 mmHg 77%
    12:00 +6°C° 0 mm 2 mps 627 mmHg 78%
    13:00 +6°C° 0.1 mm 2 mps 627 mmHg 80%
    14:00 +6°C° 0.1 mm 2 mps 627 mmHg 82%
    15:00 +6°C° 0.1 mm 2 mps 627 mmHg 84%
    16:00 +5°C° 0.1 mm 2 mps 627 mmHg 86%
    17:00 +6°C° 0.1 mm 1 mps 627 mmHg 88%
    18:00 +6°C° 0.1 mm 1 mps 627 mmHg 90%
    19:00 +5°C° 0 mm 1 mps 627 mmHg 91%
    20:00 +5°C° 0 mm 1 mps 627 mmHg 92%
    21:00 +4°C° 0 mm 0 mps 627 mmHg 93%
    22:00 +4°C° 0 mm 0 mps 627 mmHg 93%
    23:00 +4°C° 0 mm 0 mps 627 mmHg 93%

    4 April, Saturday

    Time Temperature Precipitation Wind Pressure Humidity
    00:00 +3°C° 0 mm 0 mps 627 mmHg 93%
    01:00 +3°C° 0 mm 0 mps 627 mmHg 93%
    02:00 +3°C° 0 mm 0 mps 627 mmHg 93%
    03:00 +3°C° 0 mm 0 mps 626 mmHg 93%
    04:00 +3°C° 0 mm 0 mps 627 mmHg 93%
    05:00 +3°C° 0 mm 0 mps 627 mmHg 93%
    06:00 +3°C° 0 mm 0 mps 627 mmHg 93%
    07:00 +4°C° 0 mm 1 mps 627 mmHg 91%
    08:00 +5°C° 0 mm 1 mps 627 mmHg 89%
    09:00 +5°C° 0 mm 1 mps 628 mmHg 88%
    10:00 +4°C° 0.2 mm 2 mps 628 mmHg 88%
    11:00 +4°C° 0.2 mm 2 mps 628 mmHg 88%
    12:00 +4°C° 0.2 mm 2 mps 628 mmHg 88%
    13:00 +4°C° 0.6 mm 2 mps 628 mmHg 90%
    14:00 +4°C° 0.6 mm 2 mps 628 mmHg 92%
    15:00 +3°C° 0.6 mm 2 mps 628 mmHg 94%
    16:00 +3°C° 0.6 mm 2 mps 628 mmHg 94%
    17:00 +3°C° 0.6 mm 2 mps 628 mmHg 95%
    18:00 +4°C° 0.6 mm 1 mps 628 mmHg 95%
    19:00 +4°C° 0.4 mm 1 mps 628 mmHg 95%
    20:00 +3°C° 0.4 mm 1 mps 628 mmHg 95%
    21:00 +3°C° 0.4 mm 1 mps 629 mmHg 95%
    22:00 +3°C° 0.4 mm 1 mps 629 mmHg 95%
    23:00 +3°C° 0.4 mm 1 mps 629 mmHg 94%
    Show more